Location: Bauerbach
(50.4985°N, 10.3912°E)
Time: 21:02:01
(UTC+00:00)

Cosmos 1140 Rocket - Pass Details

Date: 13 January 2026
Orbit: 739 x 763 km, 74.1° (Epoch: 18 February)

Event Time Altitude Azimuth Distance (km) Brightness Sun altitude
Rises 06:18:22 0° 213° (SSW) 3,163 6.6 -8.7°
Reaches altitude 10° 06:20:45 10° 217° (SW) 2,245 5.8 -8.3°
Maximum altitude 06:25:46 61° 298° (WNW) 844 3.5 -7.6°
Drops below altitude 10° 06:30:51 10° 19° (NNE) 2,270 5.9 -6.9°
Sets 06:33:16 0° 23° (NNE) 3,201 6.7 -6.5°
